Regional Weather Roundup
Issued by NWS Sioux Falls, SD

Home | Current Version | Previous Version | Graphics & Text | Print | Product List | Glossary On
Versions: 1 2 3 4 5 6 7 8 9 10 11 12 13 14 15 16 17 18 19 20 21 22 23 24 25 26 27 28 29 30 31 32 33 34 35 36 37 38 39 40 41 42 43 44 45 46 47 48 49 50
000
ASUS43 KFSD 250302
RWRFSD

WEATHER ROUNDUP FOR SE SOUTH DAKOTA/SW MINNESOTA/NW IOWA
NATIONAL WEATHER SERVICE SIOUX FALLS SD
900 PM CST SAT JAN 24 2015

NOTE: "FAIR" INDICATES FEW OR NO CLOUDS BELOW 12,000 FEET WITH NO
SIGNIFICANT WEATHER AND OR OBSTRUCTIONS TO VISIBILITY.


SDZ038>040-050-052>070-250400-
SOUTHEAST SOUTH DAKOTA

CITY           SKY/WX    TMP DP  RH WIND       PRES   REMARKS
CHAMBERLAIN    NOT AVBL
HURON          MIX PCPN  35  33  92 N18G28    29.64R WCI  24
MADISON        LGT RAIN  36  36 100 NE7       29.57R
MITCHELL       CLOUDY    40  37  89 NW21G28   29.62R
SIOUX FALLS    CLOUDY    37  35  92 CALM      29.56R
WINNER         LGT RAIN  43  39  86 NW38G48   29.72S
YANKTON        CLOUDY    43  39  87 W20G28    29.61R
$$

MNZ071-072-080-081-089-090-097-098-250400-
SOUTHWEST MINNESOTA

CITY           SKY/WX    TMP DP  RH WIND       PRES   REMARKS
FAIRMONT       CLOUDY    34  28  80 CALM      29.57S
JACKSON        CLOUDY    36  32  87 NW6       29.56S
LUVERNE        MIX PCPN  36  34  93 N3        29.56S
MARSHALL       CLOUDY    32  30  93 NW5       29.62R WCI  27
MONTEVIDEO     CLOUDY    34  34 100 NE8       29.62S WCI  27
PIPESTONE      CLOUDY    36  34  93 NE9       29.55S
REDWOOD FALLS  CLOUDY    35  31  85 N6        29.60R
TRACY          DRIZZLE   35  34  96 N9        29.59S WCI  27
WINDOM         DRIZZLE   34  34 100 CALM      29.57S
WORTHINGTON    CLOUDY    34  30  86 CALM      29.57S
$$

IAZ001>003-012>014-020>022-031-032-NEZ013-014-SDZ071-250400-
NORTHWEST IOWA

CITY           SKY/WX    TMP DP  RH WIND       PRES   REMARKS
ESTHERVILLE    CLOUDY    33  32  96 NE5       29.56S WCI  29
SIOUX CITY     CLOUDY    46  37  71 W9        29.56F
SPENCER        MIX PCPN  38  35  89 W7        29.56F
$$

ABBREVIATIONS USED IN REMARKS
   TC - TEMPERATURE IN CELSIUS
  WCI - WIND CHILL INDEX
   HX - HEAT INDEX
  VSB - VISIBILITY



USA.gov is the U.S. government's official web portal to all federal, state and local government web resources and services.